Погода в Моршанске

Россия / Тамбовская область     53°26′36″N   41°48′41″E
темп.,
°C
ветер,
м/с
пор.,
м/с
влажн.,
%
обл.,
%
осадки,
мм/ч
давл.,
гПа
погр.,
м
18 мая, вт
вт1800:00+17вюв4136578 0.0 1012235
03:00+16вюв4136114 0.0 1012219
06:00+16вюв412665 0.0 1011232
09:00+22юв5115616 0.0 1011499
12:00+26вюв694811 0.0 1010882
15:00+27вюв7125048 0.0 10091232
18:00+24вюв614584 0.0 1008517
21:00+21вюв617580 0.0 1008407
19 мая, ср
ср1900:00+19юв5155717 0.0 1008383
03:00+15вюв347599 0.0 100958
06:00+17ююв2783100 0.0 1009199
09:00+20юв237294 0.0 1009513
12:00+24вюв4556100 0.0 10091039
15:00+26юв5105392 0.0 10081710
18:00+24вюв496530 0.0 1006345
21:00+19ююв368697 0.3 1007108
20 мая, чт
чт2000:00+16ююз119281 0.8 100713
03:00+15ююз3795100 2.2 1007269
06:00+14ю51092100 0.3 1009639
09:00+16ююв577832 0.6 1009844
12:00+18ююв687099 0.1 10091213
15:00+18ююв6871100 0.5 10091226
18:00+17ю4779100 0.6 1009880
21:00+13ю379118 0.8 1009144
21 мая, пт
пт2100:00+12ю359392 0.0 101092
03:00+13юз5109030 0.1 1010418
06:00+12ююз5991100 0.0 1011400
09:00+15юз797999 0.1 1013920
12:00+16зюз697255 0.1 10151101
15:00+18зюз586090 0.1 10151648
18:00+18зюз247098 0.1 1016979
21:00+14ссв2280100 0.1 101827
22 мая, сб
сб2200:00+13в2390100 0.3 101756
03:00+13в499699 1.2 1016238
06:00+14вюв3894100 1.4 1015354
09:00+18юв2579100 1.7 1014631
12:00+22зюз145896 0.1 10131384
15:00+19с4484100 0.2 1014284
18:00+18с5887100 0.0 1014350
21:00+15ссв5897100 0.0 1016270